Tracking 30995 objects as of 5-Jul-2025
HD Live streaming from Space Station
objects crossing your sky now

STARLINK-31442

Track STARLINK-31442 now!
10-day predictions
STARLINK-31442 is classified as:


NORAD ID: 59859
Int'l Code: 2024-098B
Perigee: 489.1 km
Apogee: 491.3 km
Inclination: 43.0 °
Period: 94.3 minutes
Semi major axis: 6861 km
RCS: Unknown
Launch date: May 24, 2024
Source: United States (US)
Launch site: AIR FORCE EASTERN TEST RANGE (AFETR)
Your satellite tracking list
FENGYUN 1C DEB
Track 1 satellite(s)




NASA's NSSDC Master Catalog

Two Line Element Set (TLE):
1 59859U 24098B   25186.22018888  .00000076  00000-0  12299-4 0  9998
2 59859  42.9976 239.4686 0001581 266.3586  93.7084 15.27579098 63300
Source of the keplerian elements: AFSPC